Time,TemperatureF,DewpointF,PressureIn,WindDirection,WindDirectionDegrees,WindSpeedMPH,WindSpeedGustMPH,Humidity,HourlyPrecipIn,Conditions,Clouds,dailyrainin,SoftwareType,DateUTC
2013-06-21 00:01:00,75.4,68.1,29.98,ESE,113,1.2,1.3,78,0.00,,,0.00,WUHU216HW,2013-06-21 05:01:00,
2013-06-21 00:06:00,75.2,68.0,29.98,ESE,113,0.4,1.3,78,0.00,,,0.00,WUHU216HW,2013-06-21 05:06:00,
2013-06-21 00:11:00,75.2,68.0,29.98,ESE,113,0.6,1.1,78,0.00,,,0.00,WUHU216HW,2013-06-21 05:11:00,
2013-06-21 00:16:00,75.2,68.0,29.98,SE,135,0.4,0.9,78,0.00,,,0.00,WUHU216HW,2013-06-21 05:16:00,
2013-06-21 00:21:00,75.1,67.8,29.98,SE,135,1.1,1.3,78,0.00,,,0.00,WUHU216HW,2013-06-21 05:21:00,
2013-06-21 00:26:00,75.1,67.8,29.98,SSE,158,0.6,1.3,78,0.00,,,0.00,WUHU216HW,2013-06-21 05:26:00,
2013-06-21 00:31:00,75.1,67.8,29.98,SSE,158,1.8,2.0,78,0.00,,,0.00,WUHU216HW,2013-06-21 05:31:00,
2013-06-21 00:36:00,75.1,68.2,29.98,ESE,113,0.4,2.0,79,0.00,,,0.00,WUHU216HW,2013-06-21 05:36:00,
2013-06-21 00:41:00,74.9,68.1,29.98,SE,135,0.4,1.3,79,0.00,,,0.00,WUHU216HW,2013-06-21 05:41:00,
2013-06-21 00:46:00,74.9,68.1,29.99,East,90,0.4,1.3,79,0.00,,,0.00,WUHU216HW,2013-06-21 05:46:00,
2013-06-21 00:51:00,74.9,68.1,29.99,East,90,0.2,1.3,79,0.00,,,0.00,WUHU216HW,2013-06-21 05:51:00,
2013-06-21 00:56:00,74.9,68.1,29.99,East,90,0.4,1.3,79,0.00,,,0.00,WUHU216HW,2013-06-21 05:56:00,
2013-06-21 01:01:00,74.9,68.4,29.98,ESE,113,1.1,1.1,80,0.00,,,0.00,WUHU216HW,2013-06-21 06:01:00,
2013-06-21 01:06:00,74.9,68.4,29.98,SE,135,1.1,1.8,80,0.00,,,0.00,WUHU216HW,2013-06-21 06:06:00,
2013-06-21 01:11:00,74.7,68.2,29.98,ESE,113,0.0,1.8,80,0.00,,,0.00,WUHU216HW,2013-06-21 06:11:00,
2013-06-21 01:16:00,74.5,68.0,29.98,SSE,158,0.6,1.6,80,0.00,,,0.00,WUHU216HW,2013-06-21 06:16:00,
2013-06-21 01:21:00,74.5,68.0,29.98,ESE,113,0.1,1.8,80,0.00,,,0.00,WUHU216HW,2013-06-21 06:21:00,
2013-06-21 01:26:00,74.5,68.4,29.98,SE,135,1.1,1.8,81,0.00,,,0.00,WUHU216HW,2013-06-21 06:26:00,
2013-06-21 01:31:00,74.5,68.0,29.98,SSE,155,1.0,1.8,80,0.00,,,0.00,WUHU216HW,2013-06-21 06:31:00,
2013-06-21 01:36:00,74.3,67.9,29.97,East,90,0.3,1.8,80,0.00,,,0.00,WUHU216HW,2013-06-21 06:36:00,
2013-06-21 01:41:00,74.3,68.2,29.98,ESE,113,1.1,1.1,81,0.00,,,0.00,WUHU216HW,2013-06-21 06:41:00,
2013-06-21 01:46:00,74.2,68.1,29.98,ESE,113,0.9,1.3,81,0.00,,,0.00,WUHU216HW,2013-06-21 06:46:00,
2013-06-21 01:51:00,74.2,68.1,29.98,ESE,113,0.4,1.8,81,0.00,,,0.00,WUHU216HW,2013-06-21 06:51:00,
2013-06-21 01:56:00,74.0,67.9,29.97,ESE,113,0.4,1.8,81,0.00,,,0.00,WUHU216HW,2013-06-21 06:56:00,
2013-06-21 02:01:00,74.0,67.9,29.97,ESE,113,0.9,1.1,81,0.00,,,0.00,WUHU216HW,2013-06-21 07:01:00,
2013-06-21 02:06:00,73.8,67.7,29.97,ESE,113,0.6,1.1,81,0.00,,,0.00,WUHU216HW,2013-06-21 07:06:00,
2013-06-21 02:11:00,73.8,67.7,29.98,ESE,113,0.4,1.3,81,0.00,,,0.00,WUHU216HW,2013-06-21 07:11:00,
2013-06-21 02:16:00,73.8,67.7,29.97,ESE,113,0.9,1.3,81,0.00,,,0.00,WUHU216HW,2013-06-21 07:16:00,
2013-06-21 02:21:00,73.8,68.1,29.97,ESE,113,1.1,1.1,82,0.00,,,0.00,WUHU216HW,2013-06-21 07:21:00,
2013-06-21 02:26:00,73.6,67.5,29.97,ESE,113,0.3,1.1,81,0.00,,,0.00,WUHU216HW,2013-06-21 07:26:00,
2013-06-21 02:31:00,73.6,67.9,29.96,SE,135,0.2,1.8,82,0.00,,,0.00,WUHU216HW,2013-06-21 07:31:00,
2013-06-21 02:36:00,73.6,67.9,29.96,SSE,158,1.8,1.8,82,0.00,,,0.00,WUHU216HW,2013-06-21 07:36:00,
2013-06-21 02:41:00,73.4,67.7,29.96,ESE,108,0.3,1.8,82,0.00,,,0.00,WUHU216HW,2013-06-21 07:41:00,
2013-06-21 02:46:00,73.4,67.7,29.96,NE,45,0.4,1.1,82,0.00,,,0.00,WUHU216HW,2013-06-21 07:46:00,
2013-06-21 02:51:00,73.4,67.7,29.95,East,90,0.2,0.4,82,0.00,,,0.00,WUHU216HW,2013-06-21 07:51:00,
2013-06-21 02:56:00,73.3,67.8,29.96,ESE,113,0.2,0.4,83,0.00,,,0.00,WUHU216HW,2013-06-21 07:56:00,
2013-06-21 03:01:00,73.3,67.8,29.96,North,0,0.4,1.6,83,0.00,,,0.00,WUHU216HW,2013-06-21 08:01:00,
2013-06-21 03:06:00,73.3,67.8,29.96,SSE,165,0.3,1.6,83,0.00,,,0.00,WUHU216HW,2013-06-21 08:06:00,
2013-06-21 03:11:00,73.1,67.6,29.96,East,92,1.5,1.8,83,0.00,,,0.00,WUHU216HW,2013-06-21 08:11:00,
2013-06-21 03:16:00,73.1,67.6,29.95,SSE,158,0.4,1.8,83,0.00,,,0.00,WUHU216HW,2013-06-21 08:16:00,
2013-06-21 03:21:00,73.1,67.6,29.96,SE,135,2.2,2.2,83,0.00,,,0.00,WUHU216HW,2013-06-21 08:21:00,
2013-06-21 03:26:00,73.1,67.6,29.95,ESE,113,0.4,2.2,83,0.00,,,0.00,WUHU216HW,2013-06-21 08:26:00,
2013-06-21 03:31:00,72.9,67.4,29.95,SE,135,0.7,0.7,83,0.00,,,0.00,WUHU216HW,2013-06-21 08:31:00,
2013-06-21 03:36:00,72.9,67.4,29.96,SE,135,1.1,1.1,83,0.00,,,0.00,WUHU216HW,2013-06-21 08:36:00,
2013-06-21 03:41:00,72.7,67.2,29.96,ESE,121,0.6,1.1,83,0.00,,,0.00,WUHU216HW,2013-06-21 08:41:00,
2013-06-21 03:46:00,72.7,67.2,29.96,ESE,113,0.2,0.9,83,0.00,,,0.00,WUHU216HW,2013-06-21 08:46:00,
2013-06-21 03:51:00,72.7,67.2,29.95,ESE,113,0.2,0.9,83,0.00,,,0.00,WUHU216HW,2013-06-21 08:51:00,
2013-06-21 03:56:00,72.5,67.1,29.95,ESE,113,0.2,0.7,83,0.00,,,0.00,WUHU216HW,2013-06-21 08:56:00,
2013-06-21 04:01:00,72.5,67.1,29.95,ESE,113,0.4,0.4,83,0.00,,,0.00,WUHU216HW,2013-06-21 09:01:00,
2013-06-21 04:06:00,72.4,66.9,29.95,SE,135,0.8,1.1,83,0.00,,,0.00,WUHU216HW,2013-06-21 09:06:00,
2013-06-21 04:11:00,72.4,66.9,29.95,SE,135,0.4,1.1,83,0.00,,,0.00,WUHU216HW,2013-06-21 09:11:00,
2013-06-21 04:16:00,72.4,66.9,29.96,SE,135,0.4,0.7,83,0.00,,,0.00,WUHU216HW,2013-06-21 09:16:00,
2013-06-21 04:21:00,72.4,66.9,29.96,SE,135,0.1,0.4,83,0.00,,,0.00,WUHU216HW,2013-06-21 09:21:00,
2013-06-21 04:26:00,72.2,66.7,29.96,SE,135,0.2,0.4,83,0.00,,,0.00,WUHU216HW,2013-06-21 09:26:00,
2013-06-21 04:31:00,72.2,67.1,29.96,ESE,113,0.7,0.7,84,0.00,,,0.00,WUHU216HW,2013-06-21 09:31:00,
2013-06-21 04:36:00,72.2,67.1,29.96,SE,135,0.2,0.7,84,0.00,,,0.00,WUHU216HW,2013-06-21 09:36:00,
2013-06-21 04:41:00,72.0,66.9,29.96,ESE,113,0.4,0.4,84,0.00,,,0.00,WUHU216HW,2013-06-21 09:41:00,
2013-06-21 04:46:00,72.0,66.9,29.96,ENE,68,0.2,1.1,84,0.00,,,0.00,WUHU216HW,2013-06-21 09:46:00,
2013-06-21 04:51:00,72.0,66.9,29.96,SE,135,0.4,1.1,84,0.00,,,0.00,WUHU216HW,2013-06-21 09:51:00,
2013-06-21 04:56:00,72.0,66.9,29.96,SSE,158,0.4,1.1,84,0.00,,,0.00,WUHU216HW,2013-06-21 09:56:00,
2013-06-21 05:01:00,71.8,66.7,29.96,SSE,158,0.2,1.1,84,0.00,,,0.00,WUHU216HW,2013-06-21 10:01:00,
2013-06-21 05:06:00,71.8,66.7,29.96,SSE,158,0.4,0.7,84,0.00,,,0.00,WUHU216HW,2013-06-21 10:06:00,
2013-06-21 05:11:00,71.6,66.5,29.96,SSE,158,0.0,0.7,84,0.00,,,0.00,WUHU216HW,2013-06-21 10:11:00,
2013-06-21 05:16:00,71.6,66.5,29.96,East,90,0.0,1.6,84,0.00,,,0.00,WUHU216HW,2013-06-21 10:16:00,
2013-06-21 05:21:00,71.6,66.9,29.96,East,90,0.7,1.6,85,0.00,,,0.00,WUHU216HW,2013-06-21 10:21:00,
2013-06-21 05:26:00,71.5,66.7,29.96,East,90,0.4,0.7,85,0.00,,,0.00,WUHU216HW,2013-06-21 10:26:00,
2013-06-21 05:31:00,71.5,66.7,29.96,SE,135,0.1,0.7,85,0.00,,,0.00,WUHU216HW,2013-06-21 10:31:00,
2013-06-21 05:37:00,71.5,66.7,29.96,ESE,113,0.3,1.1,85,0.00,,,0.00,WUHU216HW,2013-06-21 10:37:00,
2013-06-21 05:42:00,71.5,66.7,29.96,SSE,158,0.4,1.1,85,0.00,,,0.00,WUHU216HW,2013-06-21 10:42:00,
2013-06-21 05:47:00,71.5,66.7,29.96,ESE,113,0.2,0.4,85,0.00,,,0.00,WUHU216HW,2013-06-21 10:47:00,
2013-06-21 05:52:00,71.5,66.7,29.96,WNW,293,0.7,0.7,85,0.00,,,0.00,WUHU216HW,2013-06-21 10:52:00,
2013-06-21 05:57:00,71.5,66.7,29.96,WNW,293,0.0,0.7,85,0.00,,,0.00,WUHU216HW,2013-06-21 10:57:00,
2013-06-21 06:02:00,71.5,66.7,29.96,WNW,293,0.0,0.2,85,0.00,,,0.00,WUHU216HW,2013-06-21 11:02:00,
2013-06-21 06:07:00,71.5,67.1,29.96,WNW,293,0.0,0.2,86,0.00,,,0.00,WUHU216HW,2013-06-21 11:07:00,
2013-06-21 06:12:00,71.3,66.9,29.96,North,0,0.2,0.4,86,0.00,,,0.00,WUHU216HW,2013-06-21 11:12:00,
2013-06-21 06:17:00,71.3,66.9,29.95,North,0,0.2,0.4,86,0.00,,,0.00,WUHU216HW,2013-06-21 11:17:00,
2013-06-21 06:22:00,71.5,67.1,29.96,ESE,113,0.4,0.7,86,0.00,,,0.00,WUHU216HW,2013-06-21 11:22:00,
2013-06-21 06:27:00,71.3,66.9,29.96,ESE,113,0.1,0.7,86,0.00,,,0.00,WUHU216HW,2013-06-21 11:27:00,
2013-06-21 06:32:00,71.5,67.1,29.96,ESE,113,0.0,0.4,86,0.00,,,0.00,WUHU216HW,2013-06-21 11:32:00,
2013-06-21 06:37:00,71.5,67.1,29.96,ESE,113,0.2,0.4,86,0.00,,,0.00,WUHU216HW,2013-06-21 11:37:00,
2013-06-21 06:42:00,71.5,67.1,29.96,ESE,113,0.0,0.4,86,0.00,,,0.00,WUHU216HW,2013-06-21 11:42:00,
2013-06-21 06:47:00,71.6,67.2,29.96,ESE,113,1.1,1.1,86,0.00,,,0.00,WUHU216HW,2013-06-21 11:47:00,
2013-06-21 06:52:00,71.6,67.2,29.96,ESE,113,0.0,1.1,86,0.00,,,0.00,WUHU216HW,2013-06-21 11:52:00,
2013-06-21 06:57:00,71.8,67.4,29.96,ESE,113,0.4,1.1,86,0.00,,,0.00,WUHU216HW,2013-06-21 11:57:00,
2013-06-21 07:02:00,72.0,67.6,29.96,ESE,113,0.2,1.1,86,0.00,,,0.00,WUHU216HW,2013-06-21 12:02:00,
2013-06-21 07:07:00,72.0,68.0,29.97,SE,135,0.2,0.7,87,0.00,,,0.00,WUHU216HW,2013-06-21 12:07:00,
2013-06-21 07:12:00,72.4,68.0,29.97,South,180,0.4,1.3,86,0.00,,,0.00,WUHU216HW,2013-06-21 12:12:00,
2013-06-21 07:17:00,72.5,68.1,29.97,SE,135,0.7,1.3,86,0.00,,,0.00,WUHU216HW,2013-06-21 12:17:00,
2013-06-21 07:22:00,72.7,68.3,29.97,ESE,119,0.8,1.1,86,0.00,,,0.00,WUHU216HW,2013-06-21 12:22:00,
2013-06-21 07:27:00,73.1,68.7,29.97,SE,135,0.4,1.1,86,0.00,,,0.00,WUHU216HW,2013-06-21 12:27:00,
2013-06-21 07:32:00,73.3,69.2,29.98,SW,225,0.9,1.1,87,0.00,,,0.00,WUHU216HW,2013-06-21 12:32:00,
2013-06-21 07:37:00,73.4,69.4,29.98,East,90,0.4,1.3,87,0.00,,,0.00,WUHU216HW,2013-06-21 12:37:00,
2013-06-21 07:42:00,73.8,69.8,29.98,East,90,0.7,1.3,87,0.00,,,0.00,WUHU216HW,2013-06-21 12:42:00,
2013-06-21 07:47:00,74.0,69.9,29.98,East,90,0.4,0.7,87,0.00,,,0.00,WUHU216HW,2013-06-21 12:47:00,
2013-06-21 07:52:00,74.3,70.3,29.98,SSW,203,0.3,0.7,87,0.00,,,0.00,WUHU216HW,2013-06-21 12:52:00,
2013-06-21 07:57:00,74.5,70.1,29.98,SW,225,1.6,1.6,86,0.00,,,0.00,WUHU216HW,2013-06-21 12:57:00,
2013-06-21 08:02:00,75.1,70.7,29.99,West,270,0.8,1.6,86,0.00,,,0.00,WUHU216HW,2013-06-21 13:02:00,
2013-06-21 08:07:00,75.4,71.0,29.99,SSW,203,0.7,2.2,86,0.00,,,0.00,WUHU216HW,2013-06-21 13:07:00,
2013-06-21 08:12:00,76.0,71.2,29.99,SW,225,1.1,2.2,85,0.00,,,0.00,WUHU216HW,2013-06-21 13:12:00,
2013-06-21 08:17:00,76.3,71.5,29.99,North,0,1.1,1.8,85,0.00,,,0.00,WUHU216HW,2013-06-21 13:17:00,
2013-06-21 08:22:00,76.9,71.6,29.99,SW,225,3.1,3.1,84,0.00,,,0.00,WUHU216HW,2013-06-21 13:22:00,
2013-06-21 08:27:00,77.2,72.0,29.99,SSW,203,0.8,3.1,84,0.00,,,0.00,WUHU216HW,2013-06-21 13:27:00,
2013-06-21 08:32:00,77.8,72.5,29.99,SSW,213,1.0,1.8,84,0.00,,,0.00,WUHU216HW,2013-06-21 13:32:00,
2013-06-21 08:37:00,78.1,72.5,29.99,SE,135,1.5,1.8,83,0.00,,,0.00,WUHU216HW,2013-06-21 13:37:00,
2013-06-21 08:42:00,78.7,72.7,29.99,SW,225,1.8,1.8,82,0.00,,,0.00,WUHU216HW,2013-06-21 13:42:00,
2013-06-21 08:47:00,79.0,73.1,29.99,South,170,1.9,3.4,82,0.00,,,0.00,WUHU216HW,2013-06-21 13:47:00,
2013-06-21 08:52:00,79.2,73.3,29.99,SE,133,1.4,3.4,82,0.00,,,0.00,WUHU216HW,2013-06-21 13:52:00,
2013-06-21 08:57:00,79.6,73.3,29.99,ESE,123,1.5,2.5,81,0.00,,,0.00,WUHU216HW,2013-06-21 13:57:00,
2013-06-21 09:02:00,79.9,73.6,29.98,SSE,148,1.1,2.5,81,0.00,,,0.00,WUHU216HW,2013-06-21 14:02:00,
2013-06-21 09:07:00,80.3,73.6,29.99,SW,215,2.0,3.4,80,0.00,,,0.00,WUHU216HW,2013-06-21 14:07:00,
2013-06-21 09:12:00,80.6,74.0,29.99,SE,145,1.5,3.4,80,0.00,,,0.00,WUHU216HW,2013-06-21 14:12:00,
2013-06-21 09:17:00,81.0,74.0,29.99,ESE,113,1.6,2.2,79,0.00,,,0.00,WUHU216HW,2013-06-21 14:17:00,
2013-06-21 09:22:00,81.4,74.4,29.98,SW,222,2.8,3.4,79,0.00,,,0.00,WUHU216HW,2013-06-21 14:22:00,
2013-06-21 09:27:00,81.7,74.6,29.99,West,261,1.5,3.4,79,0.00,,,0.00,WUHU216HW,2013-06-21 14:27:00,
2013-06-21 09:32:00,81.9,74.8,29.99,SSW,203,2.5,3.6,79,0.00,,,0.00,WUHU216HW,2013-06-21 14:32:00,
2013-06-21 09:37:00,82.3,74.8,29.99,SE,135,2.2,3.6,78,0.00,,,0.00,WUHU216HW,2013-06-21 14:37:00,
2013-06-21 09:42:00,82.6,75.2,29.99,SW,225,3.1,3.1,78,0.00,,,0.00,WUHU216HW,2013-06-21 14:42:00,
2013-06-21 09:47:00,82.8,75.2,29.98,NE,45,1.7,3.8,78,0.00,,,0.00,WUHU216HW,2013-06-21 14:47:00,
2013-06-21 09:52:00,83.2,75.3,29.98,SSW,203,2.5,4.0,77,0.00,,,0.00,WUHU216HW,2013-06-21 14:52:00,
2013-06-21 09:57:00,83.5,75.5,29.98,NW,317,2.3,4.0,77,0.00,,,0.00,WUHU216HW,2013-06-21 14:57:00,
2013-06-21 10:02:00,83.9,75.9,29.98,SSE,158,1.3,2.9,77,0.00,,,0.00,WUHU216HW,2013-06-21 15:02:00,
2013-06-21 10:07:00,84.2,75.4,29.99,WSW,248,3.0,3.1,75,0.00,,,0.00,WUHU216HW,2013-06-21 15:07:00,
2013-06-21 10:12:00,84.4,75.6,29.99,SW,236,3.3,3.4,75,0.00,,,0.00,WUHU216HW,2013-06-21 15:12:00,
2013-06-21 10:17:00,84.6,76.1,29.99,SSW,207,3.2,5.4,76,0.00,,,0.00,WUHU216HW,2013-06-21 15:17:00,
2013-06-21 10:22:00,85.0,75.3,29.99,SE,135,3.7,5.4,73,0.00,,,0.00,WUHU216HW,2013-06-21 15:22:00,
2013-06-21 10:27:00,85.1,75.5,29.99,SW,225,3.1,4.0,73,0.00,,,0.00,WUHU216HW,2013-06-21 15:27:00,
2013-06-21 10:32:00,85.3,76.2,29.99,SSW,198,1.4,4.0,74,0.00,,,0.00,WUHU216HW,2013-06-21 15:32:00,
2013-06-21 10:37:00,85.5,75.9,29.99,SW,225,2.5,4.0,73,0.00,,,0.00,WUHU216HW,2013-06-21 15:37:00,
2013-06-21 10:42:00,85.3,75.3,29.99,SSW,194,4.5,5.6,72,0.00,,,0.00,WUHU216HW,2013-06-21 15:42:00,
2013-06-21 10:47:00,85.5,75.5,29.99,SSW,203,1.1,5.6,72,0.00,,,0.00,WUHU216HW,2013-06-21 15:47:00,
2013-06-21 10:52:00,85.7,75.7,29.99,SSW,203,3.1,3.6,72,0.00,,,0.00,WUHU216HW,2013-06-21 15:52:00,
2013-06-21 10:57:00,86.0,76.1,29.99,SE,135,3.1,3.8,72,0.00,,,0.00,WUHU216HW,2013-06-21 15:57:00,
2013-06-21 11:02:00,86.4,76.0,30.00,SSE,158,2.3,3.8,71,0.00,,,0.00,WUHU216HW,2013-06-21 16:02:00,
2013-06-21 11:07:00,86.6,76.5,29.99,SE,135,2.0,3.4,72,0.00,,,0.00,WUHU216HW,2013-06-21 16:07:00,
2013-06-21 11:13:00,86.9,76.5,29.99,West,270,2.0,2.2,71,0.00,,,0.00,WUHU216HW,2013-06-21 16:13:00,
2013-06-21 11:18:00,87.1,76.2,29.99,WSW,248,2.9,4.0,70,0.00,,,0.00,WUHU216HW,2013-06-21 16:18:00,
2013-06-21 11:23:00,87.1,76.6,29.99,NNW,329,1.9,3.4,71,0.00,,,0.00,WUHU216HW,2013-06-21 16:23:00,
2013-06-21 11:28:00,87.1,75.8,29.99,SSE,158,4.7,4.7,69,0.00,,,0.00,WUHU216HW,2013-06-21 16:28:00,
2013-06-21 11:33:00,86.8,75.9,29.99,SW,225,1.8,4.7,70,0.00,,,0.00,WUHU216HW,2013-06-21 16:33:00,
2013-06-21 11:38:00,86.9,76.5,29.99,SSW,208,1.5,4.7,71,0.00,,,0.00,WUHU216HW,2013-06-21 16:38:00,
2013-06-21 11:43:00,87.3,76.0,29.99,SSE,150,2.8,3.1,69,0.00,,,0.00,WUHU216HW,2013-06-21 16:43:00,
2013-06-21 11:48:00,87.3,75.4,29.99,WNW,285,1.3,4.5,68,0.00,,,0.00,WUHU216HW,2013-06-21 16:48:00,
2013-06-21 11:53:00,87.7,76.2,29.99,WSW,248,2.5,4.5,69,0.00,,,0.00,WUHU216HW,2013-06-21 16:53:00,
2013-06-21 11:58:00,87.8,76.4,29.99,ESE,113,2.0,9.2,69,0.00,,,0.00,WUHU216HW,2013-06-21 16:58:00,
2013-06-21 12:03:00,87.8,76.0,29.99,SSE,158,4.7,9.2,68,0.00,,,0.00,WUHU216HW,2013-06-21 17:03:00,
2013-06-21 12:08:00,87.8,76.4,30.00,East,90,4.0,4.7,69,0.00,,,0.00,WUHU216HW,2013-06-21 17:08:00,
2013-06-21 12:13:00,87.7,75.8,29.99,SW,217,2.7,6.0,68,0.00,,,0.00,WUHU216HW,2013-06-21 17:13:00,
2013-06-21 12:18:00,87.7,76.7,29.99,SSE,149,1.5,6.0,70,0.00,,,0.00,WUHU216HW,2013-06-21 17:18:00,
2013-06-21 12:23:00,87.5,76.5,29.99,South,182,2.8,3.8,70,0.00,,,0.00,WUHU216HW,2013-06-21 17:23:00,
2013-06-21 12:28:00,87.8,76.4,29.99,SE,135,2.5,3.8,69,0.00,,,0.00,WUHU216HW,2013-06-21 17:28:00,
2013-06-21 12:33:00,88.2,76.3,29.99,SSW,203,2.7,2.7,68,0.00,,,0.00,WUHU216HW,2013-06-21 17:33:00,
2013-06-21 12:38:00,88.6,77.6,29.99,SSW,206,1.7,6.3,70,0.00,,,0.00,WUHU216HW,2013-06-21 17:38:00,
2013-06-21 12:43:00,88.9,77.5,29.98,South,172,2.6,6.3,69,0.00,,,0.00,WUHU216HW,2013-06-21 17:43:00,
2013-06-21 12:46:00,88.9,77.5,29.99,WSW,248,2.5,3.4,69,0.00,,,0.00,WUHU216HW,2013-06-21 17:46:00,
2013-06-21 12:47:00,89.1,76.8,29.98,SSW,203,1.8,3.4,67,0.00,,,0.00,WUHU216HW,2013-06-21 17:47:00,
2013-06-21 12:52:00,89.1,78.1,29.98,ESE,103,2.1,4.9,70,0.00,,,0.00,WUHU216HW,2013-06-21 17:52:00,
2013-06-21 12:57:00,89.3,77.0,29.98,SW,225,4.1,6.3,67,0.00,,,0.00,WUHU216HW,2013-06-21 17:57:00,
2013-06-21 13:02:00,89.3,77.0,29.98,SE,133,1.4,6.3,67,0.00,,,0.00,WUHU216HW,2013-06-21 18:02:00,
2013-06-21 13:07:00,89.6,77.8,29.98,SW,225,2.9,2.9,68,0.00,,,0.00,WUHU216HW,2013-06-21 18:07:00,
2013-06-21 13:13:00,89.8,77.4,29.98,SW,225,3.8,3.8,67,0.00,,,0.00,WUHU216HW,2013-06-21 18:13:00,
2013-06-21 13:18:00,89.6,77.8,29.98,South,180,2.9,4.3,68,0.00,,,0.00,WUHU216HW,2013-06-21 18:18:00,
2013-06-21 13:23:00,90.0,77.1,29.97,South,173,3.1,6.5,66,0.00,,,0.00,WUHU216HW,2013-06-21 18:23:00,
2013-06-21 13:24:00,90.0,75.7,29.97,WSW,248,6.0,6.5,63,0.00,,,0.00,WUHU216HW,2013-06-21 18:24:00,
2013-06-21 13:29:00,89.6,76.3,29.98,SW,235,4.6,6.5,65,0.00,,,0.00,WUHU216HW,2013-06-21 18:29:00,
2013-06-21 13:34:00,89.6,76.3,29.97,SW,225,2.2,6.3,65,0.00,,,0.00,WUHU216HW,2013-06-21 18:34:00,
2013-06-21 13:39:00,89.8,77.4,29.97,South,189,1.5,4.5,67,0.00,,,0.00,WUHU216HW,2013-06-21 18:39:00,
2013-06-21 13:44:00,90.0,77.6,29.97,SSE,158,1.1,4.5,67,0.00,,,0.00,WUHU216HW,2013-06-21 18:44:00,
2013-06-21 13:45:00,90.0,77.6,29.97,SSE,168,1.0,4.5,67,0.00,,,0.00,WUHU216HW,2013-06-21 18:45:00,
2013-06-21 13:46:00,90.0,77.6,29.97,SSE,168,1.0,4.5,67,0.00,,,0.00,WUHU216HW,2013-06-21 18:46:00,
2013-06-21 13:48:00,89.8,77.0,29.97,WSW,248,2.0,2.5,66,0.00,,,0.00,WUHU216HW,2013-06-21 18:48:00,
2013-06-21 13:53:00,90.0,77.1,29.97,SW,225,2.9,2.9,66,0.00,,,0.00,WUHU216HW,2013-06-21 18:53:00,
2013-06-21 13:58:00,90.4,78.0,29.96,South,180,2.0,2.9,67,0.00,,,0.00,WUHU216HW,2013-06-21 18:58:00,
2013-06-21 14:03:00,90.2,76.3,29.97,SW,225,3.1,3.1,64,0.00,,,0.00,WUHU216HW,2013-06-21 19:03:00,
2013-06-21 14:08:00,89.8,76.5,29.96,SW,225,3.4,3.4,65,0.00,,,0.00,WUHU216HW,2013-06-21 19:08:00,
2013-06-21 14:13:00,89.8,76.5,29.96,SW,225,2.0,4.7,65,0.00,,,0.00,WUHU216HW,2013-06-21 19:13:00,
2013-06-21 14:18:00,89.8,76.5,29.96,SSW,196,2.1,4.7,65,0.00,,,0.00,WUHU216HW,2013-06-21 19:18:00,
2013-06-21 14:20:00,89.8,76.5,29.96,SE,140,1.5,3.1,65,0.00,,,0.00,WUHU216HW,2013-06-21 19:20:00,
2013-06-21 14:25:00,89.8,76.5,29.96,SSW,203,2.7,3.4,65,0.00,,,0.00,WUHU216HW,2013-06-21 19:25:00,
2013-06-21 14:30:00,89.8,77.4,29.96,South,185,1.6,3.4,67,0.00,,,0.00,WUHU216HW,2013-06-21 19:30:00,
2013-06-21 14:35:00,90.0,76.7,29.96,SE,141,2.2,4.0,65,0.00,,,0.00,WUHU216HW,2013-06-21 19:35:00,
2013-06-21 14:40:00,90.2,76.8,29.96,WSW,248,2.7,4.0,65,0.00,,,0.00,WUHU216HW,2013-06-21 19:40:00,
2013-06-21 14:42:00,90.4,77.0,29.96,SSW,203,2.6,3.4,65,0.00,,,0.00,WUHU216HW,2013-06-21 19:42:00,
2013-06-21 14:47:00,90.5,76.7,29.96,SSW,203,1.2,3.6,64,0.00,,,0.00,WUHU216HW,2013-06-21 19:47:00,
2013-06-21 14:53:00,90.5,77.6,29.96,SW,225,1.8,3.6,66,0.00,,,0.00,WUHU216HW,2013-06-21 19:53:00,
2013-06-21 14:57:00,90.5,76.7,29.95,SSW,195,2.6,4.3,64,0.00,,,0.00,WUHU216HW,2013-06-21 19:57:00,
2013-06-21 15:03:00,90.4,76.5,29.95,WNW,289,1.7,4.3,64,0.00,,,0.00,WUHU216HW,2013-06-21 20:03:00,
2013-06-21 15:04:00,90.4,76.5,29.96,SW,225,1.8,4.3,64,0.00,,,0.00,WUHU216HW,2013-06-21 20:04:00,
2013-06-21 15:08:00,90.4,75.6,29.95,SSE,158,2.9,2.9,62,0.00,,,0.00,WUHU216HW,2013-06-21 20:08:00,
2013-06-21 15:11:00,90.5,75.7,29.95,SE,133,2.2,2.9,62,0.00,,,0.00,WUHU216HW,2013-06-21 20:11:00,
2013-06-21 15:14:00,90.5,75.2,29.95,SSW,205,2.8,4.0,61,0.00,,,0.00,WUHU216HW,2013-06-21 20:14:00,
2013-06-21 15:19:00,90.7,75.4,29.95,SW,225,5.6,5.6,61,0.00,,,0.00,WUHU216HW,2013-06-21 20:19:00,
2013-06-21 15:24:00,90.7,75.9,29.95,South,187,2.3,5.6,62,0.00,,,0.00,WUHU216HW,2013-06-21 20:24:00,
2013-06-21 15:29:00,90.7,75.9,29.94,ESE,113,1.8,3.1,62,0.00,,,0.00,WUHU216HW,2013-06-21 20:29:00,
2013-06-21 15:34:00,90.9,76.1,29.94,SSE,157,2.9,3.8,62,0.00,,,0.00,WUHU216HW,2013-06-21 20:34:00,
2013-06-21 15:39:00,90.7,75.9,29.94,SE,135,4.0,4.0,62,0.00,,,0.00,WUHU216HW,2013-06-21 20:39:00,
2013-06-21 15:45:00,90.9,75.6,29.94,WSW,243,2.7,4.3,61,0.00,,,0.00,WUHU216HW,2013-06-21 20:45:00,
2013-06-21 15:50:00,90.7,75.9,29.94,SW,225,1.8,4.3,62,0.00,,,0.00,WUHU216HW,2013-06-21 20:50:00,
2013-06-21 15:55:00,90.9,75.2,29.94,South,189,4.3,5.1,60,0.00,,,0.00,WUHU216HW,2013-06-21 20:55:00,
2013-06-21 16:00:00,91.1,75.2,29.94,West,260,2.2,5.1,60,0.00,,,0.00,WUHU216HW,2013-06-21 21:00:00,
2013-06-21 16:04:00,91.3,75.4,29.94,SSW,203,1.8,4.9,60,0.00,,,0.00,WUHU216HW,2013-06-21 21:04:00,
2013-06-21 16:09:00,91.4,75.6,29.94,SW,225,2.0,4.9,60,0.00,,,0.00,WUHU216HW,2013-06-21 21:09:00,
2013-06-21 16:14:00,91.8,75.4,29.93,South,191,3.4,5.6,59,0.00,,,0.00,WUHU216HW,2013-06-21 21:14:00,
2013-06-21 16:19:00,92.3,76.5,29.94,East,90,1.8,5.6,60,0.00,,,0.00,WUHU216HW,2013-06-21 21:19:00,
2013-06-21 16:24:00,92.0,76.6,29.94,SE,130,2.3,2.7,61,0.00,,,0.00,WUHU216HW,2013-06-21 21:24:00,
2013-06-21 16:29:00,91.6,76.7,29.94,SSW,207,1.2,2.7,62,0.00,,,0.00,WUHU216HW,2013-06-21 21:29:00,
2013-06-21 16:34:00,91.4,77.1,29.94,SSE,158,1.3,2.2,63,0.00,,,0.00,WUHU216HW,2013-06-21 21:34:00,
2013-06-21 16:39:00,90.9,76.5,29.94,SE,135,1.8,2.9,63,0.00,,,0.00,WUHU216HW,2013-06-21 21:39:00,
2013-06-21 16:44:00,90.5,75.7,29.93,SW,225,5.4,5.4,62,0.00,,,0.00,WUHU216HW,2013-06-21 21:44:00,
2013-06-21 16:49:00,90.5,76.7,29.93,ESE,113,2.0,5.4,64,0.00,,,0.00,WUHU216HW,2013-06-21 21:49:00,
2013-06-21 16:54:00,90.5,77.1,29.93,ENE,68,1.6,2.5,65,0.00,,,0.00,WUHU216HW,2013-06-21 21:54:00,
2013-06-21 16:59:00,90.7,76.9,29.93,SSW,201,1.9,2.7,64,0.00,,,0.00,WUHU216HW,2013-06-21 21:59:00,
2013-06-21 17:04:00,90.5,77.1,29.93,East,90,2.0,2.7,65,0.00,,,0.00,WUHU216HW,2013-06-21 22:04:00,
2013-06-21 17:09:00,90.4,77.0,29.93,SE,135,2.7,2.7,65,0.00,,,0.00,WUHU216HW,2013-06-21 22:09:00,
2013-06-21 17:15:00,90.4,76.5,29.93,SSE,158,2.3,4.0,64,0.00,,,0.00,WUHU216HW,2013-06-21 22:15:00,
2013-06-21 17:20:00,90.4,76.5,29.92,SSE,158,1.1,3.6,64,0.00,,,0.00,WUHU216HW,2013-06-21 22:20:00,
2013-06-21 17:25:00,90.2,75.9,29.93,SE,135,2.0,3.1,63,0.00,,,0.00,WUHU216HW,2013-06-21 22:25:00,
2013-06-21 17:30:00,89.8,76.1,29.92,East,90,2.0,3.6,64,0.00,,,0.00,WUHU216HW,2013-06-21 22:30:00,
2013-06-21 17:35:00,89.6,75.4,29.92,South,180,3.8,3.8,63,0.00,,,0.00,WUHU216HW,2013-06-21 22:35:00,
2013-06-21 17:40:00,89.5,75.7,29.92,West,277,2.2,3.8,64,0.00,,,0.00,WUHU216HW,2013-06-21 22:40:00,
2013-06-21 17:45:00,89.3,75.5,29.91,SSW,203,1.1,3.8,64,0.00,,,0.00,WUHU216HW,2013-06-21 22:45:00,
2013-06-21 17:50:00,89.3,76.0,29.91,SE,130,2.0,2.5,65,0.00,,,0.00,WUHU216HW,2013-06-21 22:50:00,
2013-06-21 17:55:00,89.1,75.3,29.91,SSE,158,4.0,4.0,64,0.00,,,0.00,WUHU216HW,2013-06-21 22:55:00,
2013-06-21 18:00:00,88.9,75.6,29.92,SSE,149,2.4,4.0,65,0.00,,,0.00,WUHU216HW,2013-06-21 23:00:00,
2013-06-21 18:05:00,88.9,75.2,29.91,SE,135,2.0,3.4,64,0.00,,,0.00,WUHU216HW,2013-06-21 23:05:00,
2013-06-21 18:10:00,88.7,75.0,29.91,SE,135,0.9,3.4,64,0.00,,,0.00,WUHU216HW,2013-06-21 23:10:00,
2013-06-21 18:15:00,88.6,74.9,29.91,SSE,163,2.3,2.7,64,0.00,,,0.00,WUHU216HW,2013-06-21 23:15:00,
2013-06-21 18:20:00,88.6,74.9,29.91,SSE,166,1.2,2.7,64,0.00,,,0.00,WUHU216HW,2013-06-21 23:20:00,
2013-06-21 18:25:00,88.4,75.2,29.91,ENE,78,1.3,2.5,65,0.00,,,0.00,WUHU216HW,2013-06-21 23:25:00,
2013-06-21 18:30:00,88.2,75.0,29.91,SE,135,0.9,2.5,65,0.00,,,0.00,WUHU216HW,2013-06-21 23:30:00,
2013-06-21 18:35:00,88.2,75.0,29.91,WSW,248,0.7,1.8,65,0.00,,,0.00,WUHU216HW,2013-06-21 23:35:00,
2013-06-21 18:40:00,88.0,74.8,29.91,WSW,248,0.7,2.0,65,0.00,,,0.00,WUHU216HW,2013-06-21 23:40:00,
2013-06-21 18:45:00,88.0,75.3,29.91,SE,135,1.8,2.0,66,0.00,,,0.00,WUHU216HW,2013-06-21 23:45:00,
2013-06-21 18:50:00,87.8,75.1,29.91,ESE,113,1.8,1.8,66,0.00,,,0.00,WUHU216HW,2013-06-21 23:50:00,
2013-06-21 18:55:00,87.8,75.1,29.91,SE,135,1.3,1.8,66,0.00,,,0.00,WUHU216HW,2013-06-21 23:55:00,
2013-06-21 19:00:00,87.7,75.3,29.91,SW,225,0.9,1.3,67,0.00,,,0.00,WUHU216HW,2013-06-22 00:00:00,
2013-06-21 19:05:00,87.5,75.2,29.91,SE,135,3.4,3.4,67,0.00,,,0.00,WUHU216HW,2013-06-22 00:05:00,
2013-06-21 19:10:00,87.3,75.0,29.91,ESE,113,1.1,3.4,67,0.00,,,0.00,WUHU216HW,2013-06-22 00:10:00,
2013-06-21 19:15:00,87.1,74.9,29.91,ESE,113,1.1,1.8,67,0.00,,,0.00,WUHU216HW,2013-06-22 00:15:00,
2013-06-21 19:20:00,86.8,75.0,29.91,SSE,158,0.7,1.8,68,0.00,,,0.00,WUHU216HW,2013-06-22 00:20:00,
2013-06-21 19:25:00,86.6,74.8,29.91,SE,131,1.1,2.5,68,0.00,,,0.00,WUHU216HW,2013-06-22 00:25:00,
2013-06-21 19:30:00,86.4,74.6,29.91,ENE,68,1.6,2.5,68,0.00,,,0.00,WUHU216HW,2013-06-22 00:30:00,
2013-06-21 19:35:00,86.0,74.8,29.92,SSE,158,0.7,1.6,69,0.00,,,0.00,WUHU216HW,2013-06-22 00:35:00,
2013-06-21 19:40:00,85.7,74.4,29.91,ESE,113,1.1,1.1,69,0.00,,,0.00,WUHU216HW,2013-06-22 00:40:00,
2013-06-21 19:45:00,85.3,74.1,29.91,SW,225,1.1,1.1,69,0.00,,,0.00,WUHU216HW,2013-06-22 00:45:00,
2013-06-21 19:50:00,85.1,73.9,29.91,SSE,158,0.8,1.1,69,0.00,,,0.00,WUHU216HW,2013-06-22 00:50:00,
2013-06-21 19:55:00,85.0,74.2,29.91,SSE,158,1.8,1.8,70,0.00,,,0.00,WUHU216HW,2013-06-22 00:55:00,
2013-06-21 20:00:00,84.6,73.8,29.91,SE,138,2.0,2.5,70,0.00,,,0.00,WUHU216HW,2013-06-22 01:00:00,
2013-06-21 20:05:00,84.4,73.6,29.91,WNW,293,0.4,2.5,70,0.00,,,0.00,WUHU216HW,2013-06-22 01:05:00,
2013-06-21 20:10:00,84.2,73.8,29.91,ESE,113,0.2,1.1,71,0.00,,,0.00,WUHU216HW,2013-06-22 01:10:00,
2013-06-21 20:15:00,83.9,73.4,29.92,SE,135,0.6,0.9,71,0.00,,,0.00,WUHU216HW,2013-06-22 01:15:00,
2013-06-21 20:20:00,83.7,73.3,29.92,ESE,113,0.3,0.9,71,0.00,,,0.00,WUHU216HW,2013-06-22 01:20:00,
2013-06-21 20:25:00,83.5,73.5,29.91,ESE,113,0.3,0.9,72,0.00,,,0.00,WUHU216HW,2013-06-22 01:25:00,
2013-06-21 20:30:00,83.2,73.2,29.92,ESE,113,0.1,0.9,72,0.00,,,0.00,WUHU216HW,2013-06-22 01:30:00,
2013-06-21 20:35:00,83.0,73.0,29.92,SE,135,0.4,0.7,72,0.00,,,0.00,WUHU216HW,2013-06-22 01:35:00,
2013-06-21 20:40:00,82.8,73.3,29.92,SE,135,0.0,0.4,73,0.00,,,0.00,WUHU216HW,2013-06-22 01:40:00,
2013-06-21 20:45:00,82.4,72.9,29.92,East,90,2.0,2.0,73,0.00,,,0.00,WUHU216HW,2013-06-22 01:45:00,
2013-06-21 20:50:00,82.1,73.0,29.92,East,90,0.4,2.0,74,0.00,,,0.00,WUHU216HW,2013-06-22 01:50:00,
2013-06-21 20:55:00,81.9,72.4,29.92,ENE,68,0.2,0.4,73,0.00,,,0.00,WUHU216HW,2013-06-22 01:55:00,
2013-06-21 21:00:00,81.7,72.2,29.92,SE,135,0.9,0.9,73,0.00,,,0.00,WUHU216HW,2013-06-22 02:00:00,
2013-06-21 21:05:00,81.5,72.0,29.92,SE,135,0.4,1.3,73,0.00,,,0.00,WUHU216HW,2013-06-22 02:05:00,
2013-06-21 21:10:00,81.4,72.3,29.92,SSW,203,0.0,1.3,74,0.00,,,0.00,WUHU216HW,2013-06-22 02:10:00,
2013-06-21 21:15:00,81.2,72.1,29.92,SSW,203,0.4,0.9,74,0.00,,,0.00,WUHU216HW,2013-06-22 02:15:00,
2013-06-21 21:20:00,81.0,71.9,29.92,SSW,203,0.0,0.4,74,0.00,,,0.00,WUHU216HW,2013-06-22 02:20:00,
2013-06-21 21:25:00,80.8,71.7,29.92,SSE,158,0.8,1.3,74,0.00,,,0.00,WUHU216HW,2013-06-22 02:25:00,
2013-06-21 21:30:00,80.6,71.7,29.92,SE,135,0.4,1.3,74,0.00,,,0.00,WUHU216HW,2013-06-22 02:30:00,
2013-06-21 21:35:00,80.5,71.5,29.92,SSW,203,0.2,1.1,74,0.00,,,0.00,WUHU216HW,2013-06-22 02:35:00,
2013-06-21 21:40:00,80.3,71.6,29.92,North,0,0.2,1.1,75,0.00,,,0.00,WUHU216HW,2013-06-22 02:40:00,
2013-06-21 21:45:00,80.1,71.5,29.93,East,90,0.4,1.1,75,0.00,,,0.00,WUHU216HW,2013-06-22 02:45:00,
2013-06-21 21:50:00,79.9,71.3,29.93,East,90,0.2,1.1,75,0.00,,,0.00,WUHU216HW,2013-06-22 02:50:00,
2013-06-21 21:55:00,79.9,71.3,29.93,SW,218,0.6,0.9,75,0.00,,,0.00,WUHU216HW,2013-06-22 02:55:00,
2013-06-21 22:00:00,79.7,71.1,29.93,South,180,0.2,0.9,75,0.00,,,0.00,WUHU216HW,2013-06-22 03:00:00,
2013-06-21 22:05:00,79.6,70.9,29.93,ESE,113,0.4,1.1,75,0.00,,,0.00,WUHU216HW,2013-06-22 03:05:00,
2013-06-21 22:10:00,79.6,70.9,29.93,ESE,113,0.0,1.1,75,0.00,,,0.00,WUHU216HW,2013-06-22 03:10:00,
2013-06-21 22:15:00,79.4,70.7,29.93,ESE,113,0.2,0.7,75,0.00,,,0.00,WUHU216HW,2013-06-22 03:15:00,
2013-06-21 22:20:00,79.2,70.6,29.93,SE,135,1.1,1.1,75,0.00,,,0.00,WUHU216HW,2013-06-22 03:20:00,
2013-06-21 22:25:00,79.0,70.4,29.93,SE,135,0.7,1.1,75,0.00,,,0.00,WUHU216HW,2013-06-22 03:25:00,
2013-06-21 22:30:00,78.8,70.2,29.93,SE,135,1.6,1.6,75,0.00,,,0.00,WUHU216HW,2013-06-22 03:30:00,
2013-06-21 22:35:00,78.8,70.2,29.93,SE,135,0.2,1.6,75,0.00,,,0.00,WUHU216HW,2013-06-22 03:35:00,
2013-06-21 22:40:00,78.8,70.2,29.93,SE,135,0.7,1.1,75,0.00,,,0.00,WUHU216HW,2013-06-22 03:40:00,
2013-06-21 22:45:00,78.8,70.6,29.94,SE,135,0.7,1.1,76,0.00,,,0.00,WUHU216HW,2013-06-22 03:45:00,
2013-06-21 22:50:00,78.7,70.4,29.94,SE,135,0.9,0.9,76,0.00,,,0.00,WUHU216HW,2013-06-22 03:50:00,
2013-06-21 22:55:00,78.5,70.3,29.94,ESE,113,0.6,0.9,76,0.00,,,0.00,WUHU216HW,2013-06-22 03:55:00,
2013-06-21 23:00:00,78.3,70.1,29.94,ESE,113,0.4,0.7,76,0.00,,,0.00,WUHU216HW,2013-06-22 04:00:00,
2013-06-21 23:01:00,78.3,70.1,29.94,ESE,113,0.4,0.7,76,0.00,,,0.00,WUHU216HW,2013-06-22 04:01:00,
2013-06-21 23:06:00,78.1,70.3,29.94,ESE,113,0.4,0.9,77,0.00,,,0.00,WUHU216HW,2013-06-22 04:06:00,
2013-06-21 23:11:00,77.9,70.1,29.94,ESE,113,0.2,0.9,77,0.00,,,0.00,WUHU216HW,2013-06-22 04:11:00,
2013-06-21 23:16:00,77.8,69.9,29.94,ESE,113,0.0,0.7,77,0.00,,,0.00,WUHU216HW,2013-06-22 04:16:00,
2013-06-21 23:21:00,77.8,69.9,29.94,SSE,158,0.6,0.9,77,0.00,,,0.00,WUHU216HW,2013-06-22 04:21:00,
2013-06-21 23:26:00,77.8,70.3,29.94,ESE,110,0.8,1.1,78,0.00,,,0.00,WUHU216HW,2013-06-22 04:26:00,
2013-06-21 23:31:00,77.6,70.1,29.94,NNW,338,1.1,1.1,78,0.00,,,0.00,WUHU216HW,2013-06-22 04:31:00,
2013-06-21 23:36:00,77.6,70.1,29.94,ESE,113,0.4,1.1,78,0.00,,,0.00,WUHU216HW,2013-06-22 04:36:00,
2013-06-21 23:41:00,77.6,70.6,29.94,ENE,68,0.6,0.9,79,0.00,,,0.00,WUHU216HW,2013-06-22 04:41:00,
2013-06-21 23:46:00,77.4,70.4,29.95,NNE,23,0.4,2.7,79,0.00,,,0.00,WUHU216HW,2013-06-22 04:46:00,
2013-06-21 23:51:00,77.4,70.4,29.95,SE,135,0.2,2.7,79,0.00,,,0.00,WUHU216HW,2013-06-22 04:51:00,
2013-06-21 23:56:00,77.4,70.7,29.95,WSW,248,0.2,1.6,80,0.00,,,0.00,WUHU216HW,2013-06-22 04:56:00,